TIANMU-1 20

Last updated on Thu Jul 03 2025 00:02:22 GMT+0000 (Coordinated Universal Time)

1 58661U 23208B 25183.56813998 .00005581 00000+0 22230-3 0 9999 2 58661 97.4228 295.8296 0009646 119.5316 240.6885 15.25598315 83998
UTC large
Height (km)
Speed (km/s)
/
Latitude / Longitude
Inclination (degrees)
Orbital Period (minutes)
Azimuth
Elevation
Range (km)
Doppler Factor

Next 0 passes for location: London (51.5072 / 0.1276)

Sorry there are no passes over London.